<?xml version="1.0" encoding="UTF-8" standalone="no" ?>
<gpx xmlns="http://www.topografix.com/GPX/1/1" xmlns:xsi="http://www.w3.org/2001/XMLSchema-instance" xsi:schemaLocation="http://www.topografix.com/GPX/1/1 http://www.topografix.com/GPX/1/1/gpx.xsd" version="1.1" creator="VisuGPX - https://www.visugpx.com">
  <metadata>
    <name>Arronnes mariol  25 kms</name>
    <desc><![CDATA[Rando au depart d arronnes circuit roulant dans l ensemble]]></desc>
  </metadata>
  <trk>
    <name><![CDATA[lArronnes Mariol]]></name>
    <trkseg>
      <trkpt lat="46.05894" lon="3.56723">
        <ele>355</ele>
        <time>2009-03-28T08:57:39Z</time>
      </trkpt>
      <trkpt lat="46.05905" lon="3.56607">
        <ele>357</ele>
        <time>2009-03-28T08:57:39Z</time>
      </trkpt>
      <trkpt lat="46.05996" lon="3.56532">
        <ele>360</ele>
        <time>2009-03-28T08:57:39Z</time>
      </trkpt>
      <trkpt lat="46.06136" lon="3.5649">
        <ele>356</ele>
        <time>2009-03-28T08:57:39Z</time>
      </trkpt>
      <trkpt lat="46.06271" lon="3.56415">
        <ele>356</ele>
        <time>2009-03-28T08:57:39Z</time>
      </trkpt>
      <trkpt lat="46.06403" lon="3.56315">
        <ele>356</ele>
        <time>2009-03-28T08:57:39Z</time>
      </trkpt>
      <trkpt lat="46.06494" lon="3.56194">
        <ele>357</ele>
        <time>2009-03-28T08:57:39Z</time>
      </trkpt>
      <trkpt lat="46.06552" lon="3.56121">
        <ele>357</ele>
        <time>2009-03-28T08:57:39Z</time>
      </trkpt>
      <trkpt lat="46.0658" lon="3.56109">
        <ele>357</ele>
        <time>2009-03-28T08:57:39Z</time>
      </trkpt>
      <trkpt lat="46.06571" lon="3.56079">
        <ele>357</ele>
        <time>2009-03-28T08:57:39Z</time>
      </trkpt>
      <trkpt lat="46.06598" lon="3.5608">
        <ele>357</ele>
        <time>2009-03-28T08:57:39Z</time>
      </trkpt>
      <trkpt lat="46.0659" lon="3.55973">
        <ele>365</ele>
        <time>2009-03-28T08:57:39Z</time>
      </trkpt>
      <trkpt lat="46.06541" lon="3.55966">
        <ele>368</ele>
        <time>2009-03-28T08:57:39Z</time>
      </trkpt>
      <trkpt lat="46.06467" lon="3.55867">
        <ele>394</ele>
        <time>2009-03-28T08:57:39Z</time>
      </trkpt>
      <trkpt lat="46.06412" lon="3.55753">
        <ele>417</ele>
        <time>2009-03-28T08:57:39Z</time>
      </trkpt>
      <trkpt lat="46.06365" lon="3.55593">
        <ele>417</ele>
        <time>2009-03-28T08:57:39Z</time>
      </trkpt>
      <trkpt lat="46.06287" lon="3.55504">
        <ele>417</ele>
        <time>2009-03-28T08:57:39Z</time>
      </trkpt>
      <trkpt lat="46.06109" lon="3.55274">
        <ele>432</ele>
        <time>2009-03-28T08:57:39Z</time>
      </trkpt>
      <trkpt lat="46.06017" lon="3.55085">
        <ele>456</ele>
        <time>2009-03-28T08:57:39Z</time>
      </trkpt>
      <trkpt lat="46.05989" lon="3.54984">
        <ele>468</ele>
        <time>2009-03-28T08:57:39Z</time>
      </trkpt>
      <trkpt lat="46.05924" lon="3.54953">
        <ele>471</ele>
        <time>2009-03-28T08:57:39Z</time>
      </trkpt>
      <trkpt lat="46.05837" lon="3.54919">
        <ele>481</ele>
        <time>2009-03-28T08:57:39Z</time>
      </trkpt>
      <trkpt lat="46.05777" lon="3.5484">
        <ele>491</ele>
        <time>2009-03-28T08:57:39Z</time>
      </trkpt>
      <trkpt lat="46.05741" lon="3.54781">
        <ele>492</ele>
        <time>2009-03-28T08:57:39Z</time>
      </trkpt>
      <trkpt lat="46.05575" lon="3.54781">
        <ele>502</ele>
        <time>2009-03-28T08:57:39Z</time>
      </trkpt>
      <trkpt lat="46.05373" lon="3.54763">
        <ele>535</ele>
        <time>2009-03-28T08:57:39Z</time>
      </trkpt>
      <trkpt lat="46.05202" lon="3.54701">
        <ele>551</ele>
        <time>2009-03-28T08:57:39Z</time>
      </trkpt>
      <trkpt lat="46.05117" lon="3.54645">
        <ele>554</ele>
        <time>2009-03-28T08:57:39Z</time>
      </trkpt>
      <trkpt lat="46.04992" lon="3.54613">
        <ele>560</ele>
        <time>2009-03-28T08:57:39Z</time>
      </trkpt>
      <trkpt lat="46.04916" lon="3.54547">
        <ele>561</ele>
        <time>2009-03-28T08:57:39Z</time>
      </trkpt>
      <trkpt lat="46.04804" lon="3.54386">
        <ele>563</ele>
        <time>2009-03-28T08:57:39Z</time>
      </trkpt>
      <trkpt lat="46.0477" lon="3.54249">
        <ele>563</ele>
        <time>2009-03-28T08:57:39Z</time>
      </trkpt>
      <trkpt lat="46.04731" lon="3.541">
        <ele>562</ele>
        <time>2009-03-28T08:57:39Z</time>
      </trkpt>
      <trkpt lat="46.04678" lon="3.5395">
        <ele>555</ele>
        <time>2009-03-28T08:57:39Z</time>
      </trkpt>
      <trkpt lat="46.0459" lon="3.53826">
        <ele>550</ele>
        <time>2009-03-28T08:57:39Z</time>
      </trkpt>
      <trkpt lat="46.04452" lon="3.53635">
        <ele>544</ele>
        <time>2009-03-28T08:57:39Z</time>
      </trkpt>
      <trkpt lat="46.04309" lon="3.53516">
        <ele>528</ele>
        <time>2009-03-28T08:57:39Z</time>
      </trkpt>
      <trkpt lat="46.04206" lon="3.53533">
        <ele>525</ele>
        <time>2009-03-28T08:57:39Z</time>
      </trkpt>
      <trkpt lat="46.04106" lon="3.5364">
        <ele>541</ele>
        <time>2009-03-28T08:57:39Z</time>
      </trkpt>
      <trkpt lat="46.04056" lon="3.53691">
        <ele>541</ele>
        <time>2009-03-28T08:57:39Z</time>
      </trkpt>
      <trkpt lat="46.03872" lon="3.53655">
        <ele>556</ele>
        <time>2009-03-28T08:57:39Z</time>
      </trkpt>
      <trkpt lat="46.03941" lon="3.53456">
        <ele>549</ele>
        <time>2009-03-28T08:57:39Z</time>
      </trkpt>
      <trkpt lat="46.03961" lon="3.53243">
        <ele>543</ele>
        <time>2009-03-28T08:57:39Z</time>
      </trkpt>
      <trkpt lat="46.03958" lon="3.53159">
        <ele>541</ele>
        <time>2009-03-28T08:57:39Z</time>
      </trkpt>
      <trkpt lat="46.04022" lon="3.53077">
        <ele>539</ele>
        <time>2009-03-28T08:57:39Z</time>
      </trkpt>
      <trkpt lat="46.04009" lon="3.52966">
        <ele>540</ele>
        <time>2009-03-28T08:57:39Z</time>
      </trkpt>
      <trkpt lat="46.03856" lon="3.52963">
        <ele>541</ele>
        <time>2009-03-28T08:57:39Z</time>
      </trkpt>
      <trkpt lat="46.03758" lon="3.52942">
        <ele>538</ele>
        <time>2009-03-28T08:57:39Z</time>
      </trkpt>
      <trkpt lat="46.0371" lon="3.52779">
        <ele>534</ele>
        <time>2009-03-28T08:57:39Z</time>
      </trkpt>
      <trkpt lat="46.03662" lon="3.52636">
        <ele>543</ele>
        <time>2009-03-28T08:57:39Z</time>
      </trkpt>
      <trkpt lat="46.03541" lon="3.52607">
        <ele>538</ele>
        <time>2009-03-28T08:57:39Z</time>
      </trkpt>
      <trkpt lat="46.0345" lon="3.52651">
        <ele>531</ele>
        <time>2009-03-28T08:57:39Z</time>
      </trkpt>
      <trkpt lat="46.03366" lon="3.52565">
        <ele>510</ele>
        <time>2009-03-28T08:57:39Z</time>
      </trkpt>
      <trkpt lat="46.03353" lon="3.52519">
        <ele>503</ele>
        <time>2009-03-28T08:57:39Z</time>
      </trkpt>
      <trkpt lat="46.032" lon="3.5249">
        <ele>486</ele>
        <time>2009-03-28T08:57:39Z</time>
      </trkpt>
      <trkpt lat="46.03097" lon="3.52436">
        <ele>480</ele>
        <time>2009-03-28T08:57:39Z</time>
      </trkpt>
      <trkpt lat="46.02991" lon="3.52298">
        <ele>479</ele>
        <time>2009-03-28T08:57:39Z</time>
      </trkpt>
      <trkpt lat="46.02928" lon="3.52226">
        <ele>470</ele>
        <time>2009-03-28T08:57:39Z</time>
      </trkpt>
      <trkpt lat="46.02934" lon="3.5209">
        <ele>470</ele>
        <time>2009-03-28T08:57:39Z</time>
      </trkpt>
      <trkpt lat="46.02858" lon="3.52121">
        <ele>460</ele>
        <time>2009-03-28T08:57:39Z</time>
      </trkpt>
      <trkpt lat="46.02804" lon="3.52055">
        <ele>453</ele>
        <time>2009-03-28T08:57:39Z</time>
      </trkpt>
      <trkpt lat="46.02744" lon="3.51834">
        <ele>428</ele>
        <time>2009-03-28T08:57:39Z</time>
      </trkpt>
      <trkpt lat="46.02656" lon="3.51645">
        <ele>417</ele>
        <time>2009-03-28T08:57:39Z</time>
      </trkpt>
      <trkpt lat="46.0259" lon="3.51463">
        <ele>404</ele>
        <time>2009-03-28T08:57:39Z</time>
      </trkpt>
      <trkpt lat="46.02533" lon="3.5132">
        <ele>392</ele>
        <time>2009-03-28T08:57:39Z</time>
      </trkpt>
      <trkpt lat="46.02453" lon="3.51266">
        <ele>380</ele>
        <time>2009-03-28T08:57:39Z</time>
      </trkpt>
      <trkpt lat="46.02417" lon="3.51201">
        <ele>373</ele>
        <time>2009-03-28T08:57:39Z</time>
      </trkpt>
      <trkpt lat="46.02336" lon="3.5118">
        <ele>366</ele>
        <time>2009-03-28T08:57:39Z</time>
      </trkpt>
      <trkpt lat="46.02322" lon="3.51309">
        <ele>392</ele>
        <time>2009-03-28T08:57:39Z</time>
      </trkpt>
      <trkpt lat="46.02257" lon="3.51488">
        <ele>408</ele>
        <time>2009-03-28T08:57:39Z</time>
      </trkpt>
      <trkpt lat="46.02184" lon="3.51609">
        <ele>403</ele>
        <time>2009-03-28T08:57:39Z</time>
      </trkpt>
      <trkpt lat="46.02137" lon="3.51763">
        <ele>411</ele>
        <time>2009-03-28T08:57:39Z</time>
      </trkpt>
      <trkpt lat="46.0214" lon="3.51905">
        <ele>437</ele>
        <time>2009-03-28T08:57:39Z</time>
      </trkpt>
      <trkpt lat="46.02117" lon="3.51989">
        <ele>426</ele>
        <time>2009-03-28T08:57:39Z</time>
      </trkpt>
      <trkpt lat="46.02141" lon="3.52235">
        <ele>414</ele>
        <time>2009-03-28T08:57:39Z</time>
      </trkpt>
      <trkpt lat="46.0224" lon="3.52263">
        <ele>436</ele>
        <time>2009-03-28T08:57:39Z</time>
      </trkpt>
      <trkpt lat="46.02306" lon="3.52355">
        <ele>433</ele>
        <time>2009-03-28T08:57:39Z</time>
      </trkpt>
      <trkpt lat="46.02368" lon="3.52427">
        <ele>458</ele>
        <time>2009-03-28T08:57:39Z</time>
      </trkpt>
      <trkpt lat="46.02359" lon="3.52504">
        <ele>459</ele>
        <time>2009-03-28T08:57:39Z</time>
      </trkpt>
      <trkpt lat="46.02282" lon="3.5247">
        <ele>442</ele>
        <time>2009-03-28T08:57:39Z</time>
      </trkpt>
      <trkpt lat="46.02286" lon="3.52616">
        <ele>468.126373</ele>
        <time>2009-03-28T08:57:39Z</time>
      </trkpt>
      <trkpt lat="46.02313" lon="3.52581">
        <ele>467.489685</ele>
        <time>2009-03-28T08:57:39Z</time>
      </trkpt>
      <trkpt lat="46.02335" lon="3.52591">
        <ele>472.480042</ele>
        <time>2009-03-28T08:57:39Z</time>
      </trkpt>
      <trkpt lat="46.02342" lon="3.52639">
        <ele>483.016754</ele>
        <time>2009-03-28T08:57:39Z</time>
      </trkpt>
      <trkpt lat="46.02368" lon="3.52669">
        <ele>489.588257</ele>
        <time>2009-03-28T08:57:39Z</time>
      </trkpt>
      <trkpt lat="46.02322" lon="3.528">
        <ele>504.303253</ele>
        <time>2009-03-28T08:57:39Z</time>
      </trkpt>
      <trkpt lat="46.02375" lon="3.52837">
        <ele>508.795013</ele>
        <time>2009-03-28T08:57:39Z</time>
      </trkpt>
      <trkpt lat="46.02427" lon="3.52851">
        <ele>516.46106</ele>
        <time>2009-03-28T08:57:39Z</time>
      </trkpt>
      <trkpt lat="46.02453" lon="3.52926">
        <ele>517.19751</ele>
        <time>2009-03-28T08:57:39Z</time>
      </trkpt>
      <trkpt lat="46.02477" lon="3.52975">
        <ele>516.609253</ele>
        <time>2009-03-28T08:57:39Z</time>
      </trkpt>
      <trkpt lat="46.02495" lon="3.53011">
        <ele>515.318237</ele>
        <time>2009-03-28T08:57:39Z</time>
      </trkpt>
      <trkpt lat="46.02465" lon="3.53062">
        <ele>518.303589</ele>
        <time>2009-03-28T08:57:39Z</time>
      </trkpt>
      <trkpt lat="46.02444" lon="3.53116">
        <ele>522.183533</ele>
        <time>2009-03-28T08:57:39Z</time>
      </trkpt>
      <trkpt lat="46.02433" lon="3.53177">
        <ele>527.358765</ele>
        <time>2009-03-28T08:57:39Z</time>
      </trkpt>
      <trkpt lat="46.02481" lon="3.53292">
        <ele>537.33429</ele>
        <time>2009-03-28T08:57:39Z</time>
      </trkpt>
      <trkpt lat="46.02505" lon="3.5337">
        <ele>544.507507</ele>
        <time>2009-03-28T08:57:39Z</time>
      </trkpt>
      <trkpt lat="46.02524" lon="3.53467">
        <ele>551.028381</ele>
      </trkpt>
      <trkpt lat="46.02555" lon="3.53493">
        <ele>555.647888</ele>
      </trkpt>
      <trkpt lat="46.02572" lon="3.536">
        <ele>558.959595</ele>
      </trkpt>
      <trkpt lat="46.02611" lon="3.53727">
        <ele>561.278625</ele>
      </trkpt>
      <trkpt lat="46.02631" lon="3.53963">
        <ele>564.575256</ele>
      </trkpt>
      <trkpt lat="46.02602" lon="3.54124">
        <ele>561.896301</ele>
      </trkpt>
      <trkpt lat="46.02586" lon="3.54211">
        <ele>569.758728</ele>
      </trkpt>
      <trkpt lat="46.02534" lon="3.54229">
        <ele>569.393372</ele>
      </trkpt>
      <trkpt lat="46.02429" lon="3.54385">
        <ele>573.853882</ele>
      </trkpt>
      <trkpt lat="46.0237" lon="3.54364">
        <ele>565.5</ele>
      </trkpt>
      <trkpt lat="46.02348" lon="3.54403">
        <ele>562.195618</ele>
      </trkpt>
      <trkpt lat="46.02374" lon="3.54484">
        <ele>567.220337</ele>
      </trkpt>
      <trkpt lat="46.02321" lon="3.54534">
        <ele>561.005005</ele>
      </trkpt>
      <trkpt lat="46.02193" lon="3.54554">
        <ele>537.710388</ele>
      </trkpt>
      <trkpt lat="46.02134" lon="3.54634">
        <ele>536.575806</ele>
      </trkpt>
      <trkpt lat="46.02071" lon="3.546">
        <ele>538.396729</ele>
        <time>2009-03-28T08:57:39Z</time>
      </trkpt>
      <trkpt lat="46.02022" lon="3.54599">
        <ele>540.219971</ele>
        <time>2009-03-28T08:57:39Z</time>
      </trkpt>
      <trkpt lat="46.01777" lon="3.54771">
        <ele>560</ele>
        <time>2009-03-28T08:57:39Z</time>
      </trkpt>
      <trkpt lat="46.01632" lon="3.54871">
        <ele>572</ele>
        <time>2009-03-28T08:57:39Z</time>
      </trkpt>
      <trkpt lat="46.0159" lon="3.54812">
        <ele>568.60498</ele>
        <time>2009-03-28T08:57:39Z</time>
      </trkpt>
      <trkpt lat="46.01522" lon="3.54866">
        <ele>569.126892</ele>
        <time>2009-03-28T08:57:39Z</time>
      </trkpt>
      <trkpt lat="46.01467" lon="3.5491">
        <ele>565.651245</ele>
        <time>2009-03-28T08:57:39Z</time>
      </trkpt>
      <trkpt lat="46.0145" lon="3.55">
        <ele>564.757446</ele>
        <time>2009-03-28T08:57:39Z</time>
      </trkpt>
      <trkpt lat="46.01474" lon="3.55136">
        <ele>563.121887</ele>
        <time>2009-03-28T08:57:39Z</time>
      </trkpt>
      <trkpt lat="46.01529" lon="3.55208">
        <ele>565.487183</ele>
        <time>2009-03-28T08:57:39Z</time>
      </trkpt>
      <trkpt lat="46.01528" lon="3.55302">
        <ele>566.252502</ele>
        <time>2009-03-28T08:57:39Z</time>
      </trkpt>
      <trkpt lat="46.01573" lon="3.55351">
        <ele>565.629395</ele>
        <time>2009-03-28T08:57:39Z</time>
      </trkpt>
      <trkpt lat="46.01571" lon="3.5547">
        <ele>570.300598</ele>
        <time>2009-03-28T08:57:39Z</time>
      </trkpt>
      <trkpt lat="46.01559" lon="3.5558">
        <ele>571.5</ele>
        <time>2009-03-28T08:57:39Z</time>
      </trkpt>
      <trkpt lat="46.01578" lon="3.55674">
        <ele>574.611267</ele>
        <time>2009-03-28T08:57:39Z</time>
      </trkpt>
      <trkpt lat="46.01617" lon="3.55807">
        <ele>584.051453</ele>
        <time>2009-03-28T08:57:39Z</time>
      </trkpt>
      <trkpt lat="46.01627" lon="3.55911">
        <ele>579.192505</ele>
        <time>2009-03-28T08:57:39Z</time>
      </trkpt>
      <trkpt lat="46.01564" lon="3.5611">
        <ele>580.991272</ele>
        <time>2009-03-28T08:57:39Z</time>
      </trkpt>
      <trkpt lat="46.01492" lon="3.56363">
        <ele>561.634033</ele>
        <time>2009-03-28T08:57:39Z</time>
      </trkpt>
      <trkpt lat="46.0126" lon="3.56196">
        <ele>568.390015</ele>
        <time>2009-03-28T08:57:39Z</time>
      </trkpt>
      <trkpt lat="46.0118" lon="3.56114">
        <ele>569.347229</ele>
        <time>2009-03-28T08:57:39Z</time>
      </trkpt>
      <trkpt lat="46.01074" lon="3.55934">
        <ele>569.597229</ele>
        <time>2009-03-28T08:57:39Z</time>
      </trkpt>
      <trkpt lat="46.00989" lon="3.55848">
        <ele>567.571472</ele>
        <time>2009-03-28T08:57:39Z</time>
      </trkpt>
      <trkpt lat="46.00714" lon="3.55884">
        <ele>568.003723</ele>
        <time>2009-03-28T08:57:39Z</time>
      </trkpt>
      <trkpt lat="46.00603" lon="3.55991">
        <ele>577.100342</ele>
        <time>2009-03-28T08:57:39Z</time>
      </trkpt>
      <trkpt lat="46.00546" lon="3.56261">
        <ele>585.14856</ele>
      </trkpt>
      <trkpt lat="46.00477" lon="3.56579">
        <ele>594.000366</ele>
      </trkpt>
      <trkpt lat="46.00449" lon="3.56717">
        <ele>606.183899</ele>
      </trkpt>
      <trkpt lat="46.00459" lon="3.56843">
        <ele>607.928406</ele>
      </trkpt>
      <trkpt lat="46.00435" lon="3.56927">
        <ele>616.090881</ele>
      </trkpt>
      <trkpt lat="46.00445" lon="3.57056">
        <ele>624.261536</ele>
      </trkpt>
      <trkpt lat="46.00457" lon="3.5715">
        <ele>627.903259</ele>
      </trkpt>
      <trkpt lat="46.00455" lon="3.57189">
        <ele>629.485352</ele>
      </trkpt>
      <trkpt lat="46.0042" lon="3.57311">
        <ele>636.401978</ele>
      </trkpt>
      <trkpt lat="46.00436" lon="3.57447">
        <ele>643.405029</ele>
      </trkpt>
      <trkpt lat="46.00439" lon="3.57569">
        <ele>649.203613</ele>
      </trkpt>
      <trkpt lat="46.00422" lon="3.57737">
        <ele>658.107483</ele>
      </trkpt>
      <trkpt lat="46.00266" lon="3.57979">
        <ele>674.044189</ele>
      </trkpt>
      <trkpt lat="46.0034" lon="3.58051">
        <ele>678.501221</ele>
      </trkpt>
      <trkpt lat="46.00443" lon="3.58083">
        <ele>668.451233</ele>
      </trkpt>
      <trkpt lat="46.00517" lon="3.58068">
        <ele>658.717407</ele>
      </trkpt>
      <trkpt lat="46.00604" lon="3.58306">
        <ele>640.787109</ele>
      </trkpt>
      <trkpt lat="46.00643" lon="3.58458">
        <ele>624.345215</ele>
      </trkpt>
      <trkpt lat="46.00672" lon="3.58533">
        <ele>609.06189</ele>
      </trkpt>
      <trkpt lat="46.00658" lon="3.58594">
        <ele>604.270752</ele>
      </trkpt>
      <trkpt lat="46.0072" lon="3.58618">
        <ele>583.664001</ele>
      </trkpt>
      <trkpt lat="46.00766" lon="3.58552">
        <ele>574.407776</ele>
      </trkpt>
      <trkpt lat="46.00854" lon="3.58534">
        <ele>565.788147</ele>
      </trkpt>
      <trkpt lat="46.00944" lon="3.58523">
        <ele>554.88739</ele>
      </trkpt>
      <trkpt lat="46.00978" lon="3.58479">
        <ele>548.760498</ele>
      </trkpt>
      <trkpt lat="46.01031" lon="3.58383">
        <ele>539.598633</ele>
      </trkpt>
      <trkpt lat="46.01034" lon="3.58312">
        <ele>549.836853</ele>
      </trkpt>
      <trkpt lat="46.00985" lon="3.58085">
        <ele>557.34906</ele>
      </trkpt>
      <trkpt lat="46.01089" lon="3.57981">
        <ele>564.984497</ele>
      </trkpt>
      <trkpt lat="46.01121" lon="3.57975">
        <ele>565.900085</ele>
      </trkpt>
      <trkpt lat="46.01155" lon="3.57782">
        <ele>563.63855</ele>
      </trkpt>
      <trkpt lat="46.01187" lon="3.57686">
        <ele>572.330322</ele>
      </trkpt>
      <trkpt lat="46.01188" lon="3.57586">
        <ele>574.251587</ele>
      </trkpt>
      <trkpt lat="46.01261" lon="3.5752">
        <ele>554.454529</ele>
      </trkpt>
      <trkpt lat="46.01338" lon="3.57502">
        <ele>537.286377</ele>
      </trkpt>
      <trkpt lat="46.01392" lon="3.57455">
        <ele>535.367188</ele>
      </trkpt>
      <trkpt lat="46.01444" lon="3.57466">
        <ele>525.416016</ele>
      </trkpt>
      <trkpt lat="46.01495" lon="3.57483">
        <ele>516.550049</ele>
      </trkpt>
      <trkpt lat="46.01582" lon="3.57421">
        <ele>503.949554</ele>
      </trkpt>
      <trkpt lat="46.01645" lon="3.5739">
        <ele>490.037567</ele>
        <time>2009-03-28T08:57:39Z</time>
      </trkpt>
      <trkpt lat="46.0171" lon="3.57378">
        <ele>484.431732</ele>
        <time>2009-03-28T08:57:39Z</time>
      </trkpt>
      <trkpt lat="46.01742" lon="3.57337">
        <ele>487</ele>
        <time>2009-03-28T08:57:39Z</time>
      </trkpt>
      <trkpt lat="46.01754" lon="3.5727">
        <ele>484.830322</ele>
        <time>2009-03-28T08:57:39Z</time>
      </trkpt>
      <trkpt lat="46.01768" lon="3.57241">
        <ele>480.653198</ele>
        <time>2009-03-28T08:57:39Z</time>
      </trkpt>
      <trkpt lat="46.01786" lon="3.57245">
        <ele>478</ele>
        <time>2009-03-28T08:57:39Z</time>
      </trkpt>
      <trkpt lat="46.01843" lon="3.57343">
        <ele>462</ele>
        <time>2009-03-28T08:57:39Z</time>
      </trkpt>
      <trkpt lat="46.01873" lon="3.57466">
        <ele>459</ele>
        <time>2009-03-28T08:57:39Z</time>
      </trkpt>
      <trkpt lat="46.01922" lon="3.575">
        <ele>471</ele>
        <time>2009-03-28T08:57:39Z</time>
      </trkpt>
      <trkpt lat="46.01885" lon="3.57628">
        <ele>479</ele>
        <time>2009-03-28T08:57:39Z</time>
      </trkpt>
      <trkpt lat="46.01961" lon="3.57688">
        <ele>480</ele>
        <time>2009-03-28T08:57:39Z</time>
      </trkpt>
      <trkpt lat="46.02082" lon="3.57691">
        <ele>485</ele>
        <time>2009-03-28T08:57:39Z</time>
      </trkpt>
      <trkpt lat="46.0215" lon="3.57634">
        <ele>503</ele>
        <time>2009-03-28T08:57:39Z</time>
      </trkpt>
      <trkpt lat="46.02187" lon="3.57622">
        <ele>513</ele>
        <time>2009-03-28T08:57:39Z</time>
      </trkpt>
      <trkpt lat="46.02258" lon="3.57656">
        <ele>527</ele>
        <time>2009-03-28T08:57:39Z</time>
      </trkpt>
      <trkpt lat="46.02352" lon="3.57684">
        <ele>541</ele>
        <time>2009-03-28T08:57:39Z</time>
      </trkpt>
      <trkpt lat="46.02456" lon="3.57667">
        <ele>554</ele>
        <time>2009-03-28T08:57:39Z</time>
      </trkpt>
      <trkpt lat="46.02533" lon="3.57668">
        <ele>561</ele>
        <time>2009-03-28T08:57:39Z</time>
      </trkpt>
      <trkpt lat="46.02604" lon="3.57689">
        <ele>565</ele>
        <time>2009-03-28T08:57:39Z</time>
      </trkpt>
      <trkpt lat="46.02685" lon="3.57691">
        <ele>566</ele>
        <time>2009-03-28T08:57:39Z</time>
      </trkpt>
      <trkpt lat="46.02804" lon="3.57558">
        <ele>572</ele>
        <time>2009-03-28T08:57:39Z</time>
      </trkpt>
      <trkpt lat="46.02811" lon="3.57668">
        <ele>571</ele>
        <time>2009-03-28T08:57:39Z</time>
      </trkpt>
      <trkpt lat="46.02947" lon="3.57658">
        <ele>569</ele>
        <time>2009-03-28T08:57:39Z</time>
      </trkpt>
      <trkpt lat="46.03001" lon="3.5766">
        <ele>565</ele>
        <time>2009-03-28T08:57:39Z</time>
      </trkpt>
      <trkpt lat="46.03024" lon="3.5757">
        <ele>563</ele>
        <time>2009-03-28T08:57:39Z</time>
      </trkpt>
      <trkpt lat="46.03208" lon="3.57574">
        <ele>554</ele>
        <time>2009-03-28T08:57:39Z</time>
      </trkpt>
      <trkpt lat="46.03388" lon="3.57578">
        <ele>541</ele>
        <time>2009-03-28T08:57:39Z</time>
      </trkpt>
      <trkpt lat="46.0351" lon="3.576">
        <ele>530</ele>
        <time>2009-03-28T08:57:39Z</time>
      </trkpt>
      <trkpt lat="46.03618" lon="3.5757">
        <ele>526</ele>
        <time>2009-03-28T08:57:39Z</time>
      </trkpt>
      <trkpt lat="46.0374" lon="3.57521">
        <ele>511</ele>
        <time>2009-03-28T08:57:39Z</time>
      </trkpt>
      <trkpt lat="46.03862" lon="3.57479">
        <ele>492</ele>
        <time>2009-03-28T08:57:39Z</time>
      </trkpt>
      <trkpt lat="46.03956" lon="3.57526">
        <ele>461</ele>
        <time>2009-03-28T08:57:39Z</time>
      </trkpt>
      <trkpt lat="46.0406" lon="3.57464">
        <ele>451</ele>
        <time>2009-03-28T08:57:39Z</time>
      </trkpt>
      <trkpt lat="46.04142" lon="3.57382">
        <ele>446</ele>
        <time>2009-03-28T08:57:39Z</time>
      </trkpt>
      <trkpt lat="46.04165" lon="3.57292">
        <ele>439</ele>
        <time>2009-03-28T08:57:39Z</time>
      </trkpt>
      <trkpt lat="46.04265" lon="3.57204">
        <ele>432</ele>
        <time>2009-03-28T08:57:39Z</time>
      </trkpt>
      <trkpt lat="46.04355" lon="3.57238">
        <ele>437</ele>
        <time>2009-03-28T08:57:39Z</time>
      </trkpt>
      <trkpt lat="46.04446" lon="3.5715">
        <ele>434</ele>
        <time>2009-03-28T08:57:39Z</time>
      </trkpt>
      <trkpt lat="46.04519" lon="3.57074">
        <ele>443</ele>
        <time>2009-03-28T08:57:39Z</time>
      </trkpt>
      <trkpt lat="46.04614" lon="3.56992">
        <ele>440</ele>
        <time>2009-03-28T08:57:39Z</time>
      </trkpt>
      <trkpt lat="46.04668" lon="3.56987">
        <ele>443</ele>
        <time>2009-03-28T08:57:39Z</time>
      </trkpt>
      <trkpt lat="46.04708" lon="3.57059">
        <ele>431</ele>
        <time>2009-03-28T08:57:39Z</time>
      </trkpt>
      <trkpt lat="46.04748" lon="3.5706">
        <ele>423</ele>
        <time>2009-03-28T08:57:39Z</time>
      </trkpt>
      <trkpt lat="46.0478" lon="3.57047">
        <ele>425</ele>
        <time>2009-03-28T08:57:39Z</time>
      </trkpt>
      <trkpt lat="46.04829" lon="3.5712">
        <ele>419</ele>
        <time>2009-03-28T08:57:39Z</time>
      </trkpt>
      <trkpt lat="46.04846" lon="3.57185">
        <ele>404</ele>
        <time>2009-03-28T08:57:39Z</time>
      </trkpt>
      <trkpt lat="46.04962" lon="3.57213">
        <ele>382</ele>
        <time>2009-03-28T08:57:39Z</time>
      </trkpt>
      <trkpt lat="46.04969" lon="3.57065">
        <ele>390</ele>
        <time>2009-03-28T08:57:39Z</time>
      </trkpt>
      <trkpt lat="46.05066" lon="3.57248">
        <ele>372</ele>
        <time>2009-03-28T08:57:39Z</time>
      </trkpt>
      <trkpt lat="46.05276" lon="3.57311">
        <ele>372</ele>
        <time>2009-03-28T08:57:39Z</time>
      </trkpt>
      <trkpt lat="46.05344" lon="3.57312">
        <ele>376</ele>
        <time>2009-03-28T08:57:39Z</time>
      </trkpt>
      <trkpt lat="46.05421" lon="3.57288">
        <ele>377</ele>
        <time>2009-03-28T08:57:39Z</time>
      </trkpt>
      <trkpt lat="46.05575" lon="3.57117">
        <ele>370</ele>
        <time>2009-03-28T08:57:39Z</time>
      </trkpt>
      <trkpt lat="46.05702" lon="3.57049">
        <ele>364</ele>
        <time>2009-03-28T08:57:39Z</time>
      </trkpt>
      <trkpt lat="46.05779" lon="3.57044">
        <ele>361</ele>
        <time>2009-03-28T08:57:39Z</time>
      </trkpt>
      <trkpt lat="46.05842" lon="3.5702">
        <ele>366</ele>
        <time>2009-03-28T08:57:39Z</time>
      </trkpt>
      <trkpt lat="46.05882" lon="3.56991">
        <ele>373</ele>
        <time>2009-03-28T08:57:39Z</time>
      </trkpt>
      <trkpt lat="46.059" lon="3.56946">
        <ele>371</ele>
        <time>2009-03-28T08:57:39Z</time>
      </trkpt>
      <trkpt lat="46.05851" lon="3.56874">
        <ele>359</ele>
        <time>2009-03-28T08:57:39Z</time>
      </trkpt>
      <trkpt lat="46.05868" lon="3.56817">
        <ele>357</ele>
        <time>2009-03-28T08:57:39Z</time>
      </trkpt>
      <trkpt lat="46.05897" lon="3.56791">
        <ele>357</ele>
        <time>2009-03-28T08:57:39Z</time>
      </trkpt>
    </trkseg>
  </trk>
</gpx>